User: anonymous   Login
Location: *
(51.5000°N, 0.1100°W)
Time: 03:34:10
(UTC+00:00)
Language:

ATLAS 2AS CENTAUR R/B - Orbit

View from above orbital plane
View from above orbital plane
View from above satellite
View from above satellite

Ground track
Ground track

The orbit data is extracted from the following two-line orbital elements,

1 28096U 03054B   24200.57199757  .00000014  00000-0  17703-3 0  9991
2 28096  63.6808 358.8262 0115427 167.4379 192.9569 13.40979350  8739
Epoch (UTC): 18 July 2024 13:43:40
Eccentricity: 0.0115427
inclination: 63.6808°
perigee height: 1019 km
apogee height: 1192 km
right ascension of ascending node: 358.8262°
argument of perigee: 167.4379°
revolutions per day: 13.40979350
mean anomaly at epoch: 192.9569°
orbit number at epoch: 873

The dashed part of the orbit path shows where the satellite is in the earth's shadow,  

DLR